Wind_Speed
26 28 29 29 28 27 30 31 29 29 23 20 22 23 21 22 24 22 22 21 20 18 17 16 15 16 16 17 16 9 6 6 12 20 19 15 19 21 21 20 23 25 26 29 31 33 34
29 31 33 35 35 33 31 30 33 32 30 34 31 23 26 24 23 26 25 22 20 19 19 18 17 16 16 15 17 14 16 16 13 12 15 15 17 16 19 19 23 24 24 26 29 31 34
34 36 38 39 41 40 37 36 34 34 33 32 36 36 26 24 23 27 27 23 21 21 21 19 20 18 15 10 13 15 15 15 15 17 17 15 16 16 17 17 20 21 24 26 28 29 33
38 40 42 42 41 40 40 40 40 36 36 33 32 39 28 27 22 25 29 26 23 22 21 21 21 19 17 14 12 15 15 14 12 13 15 17 20 20 21 21 22 22 24 26 23 25 26
41 43 44 44 41 39 38 40 42 39 37 34 32 39 39 25 24 25 27 27 23 23 21 20 21 19 18 17 16 13 15 15 13 14 16 17 19 21 21 18 20 21 21 21 21 15 19
49 51 49 49 42 37 35 36 36 39 35 33 31 33 44 36 29 27 25 29 24 25 24 24 20 15 19 11 17 17 17 17 17 17 18 19 21 21 19 18 14 12 17 20 21 14 21
52 52 52 51 47 42 35 39 37 34 35 31 28 30 37 47 33 28 31 33 27 27 29 22 8 19 11 11 18 13 17 21 21 20 20 21 22 25 21 20 20 21 23 23 22 18 27
50 51 50 49 48 46 38 44 42 35 31 25 20 24 31 42 30 33 36 36 28 23 19 20 23 21 13 17 17 15 17 17 18 17 18 21 27 24 23 23 21 23 26 29 31 29 30
51 49 47 46 45 44 44 44 41 29 17 17 17 18 27 43 41 38 33 34 27 20 21 21 19 20 23 23 21 17 17 19 19 21 21 24 18 5 10 20 26 26 27 26 29 30 33
50 48 48 45 43 40 44 40 37 26 20 22 22 17 21 31 43 34 35 40 28 16 10 11 21 24 25 25 26 25 26 25 25 22 19 20 23 27 27 25 19 26 26 27 28 21 12
50 48 48 45 39 41 42 38 33 21 23 20 22 22 19 29 40 34 35 38 25 15 1 10 18 20 26 27 19 13 25 29 28 24 20 15 12 10 13 12 15 23 19 18 15 15 20
51 49 46 41 39 39 39 36 28 25 15 23 18 16 18 29 38 22 30 41 30 14 6 10 13 18 19 24 22 15 15 17 18 20 22 23 23 22 20 18 17 16 16 16 17 17 12
52 49 46 37 37 38 36 34 26 25 23 30 16 12 17 25 36 19 41 39 20 8 11 10 15 15 15 18 19 16 17 20 14 11 17 20 25 26 25 22 21 22 10 3 6 8 7
53 50 39 35 36 36 33 32 27 23 26 27 25 11 14 18 26 35 46 45 6 18 17 12 16 19 15 17 16 14 11 18 23 15 9 9 7 12 14 17 17 22 29 11 5 5 5
56 43 34 35 36 34 31 32 19 21 30 37 16 5 9 20 26 47 50 26 9 22 24 15 19 22 16 18 12 17 17 18 17 21 12 5 6 8 11 7 14 14 24 27 16 24 10
55 37 36 36 34 30 30 30 17 20 28 33 11 3 6 21 22 41 46 19 14 17 25 16 10 13 20 20 14 13 11 5 13 19 15 12 11 10 18 17 21 26 9 10 13 5 8
52 38 36 36 29 27 29 26 15 22 26 29 11 3 5 30 18 39 29 15 21 15 11 23 14 13 11 14 14 13 7 4 6 4 15 16 17 11 13 15 21 24 31 22 12 10 3
50 36 36 32 28 28 28 22 13 18 27 30 8 5 9 16 25 27 23 19 18 22 15 12 13 12 8 10 11 13 13 7 4 5 11 13 11 18 27 27 24 24 33 33 25 13 12
47 36 33 29 28 29 26 19 14 19 24 29 9 10 4 8 25 36 22 23 19 20 21 14 10 10 10 8 6 9 8 7 14 12 6 9 11 7 8 10 25 34 38 38 39 29 30
47 36 32 30 30 29 27 14 13 19 23 25 7 8 9 10 26 37 25 27 25 17 15 12 10 11 9 7 10 6 4 6 8 6 11 17 21 24 18 28 27 18 34 36 41 22 32
45 35 33 31 28 27 22 11 13 17 16 1 7 6 12 28 19 32 20 29 22 20 19 14 12 11 5 8 10 14 13 15 14 13 19 19 29 30 38 41 44 44 41 33 36 37 29
48 35 31 30 26 25 19 9 7 18 8 6 5 6 12 23 20 32 30 23 22 15 16 18 12 10 15 12 14 5 6 7 13 15 17 24 32 30 42 39 33 34 34 44 44 42 41
49 37 30 29 26 23 14 7 4 15 12 3 7 3 18 16 18 26 27 17 10 17 8 8 7 11 8 9 9 11 13 19 17 13 16 22 24 20 28 28 36 16 11 19 30 39 35
48 40 30 26 26 21 16 7 3 5 5 3 3 8 16 19 31 22 20 19 12 14 9 6 11 8 8 6 6 10 15 18 21 26 26 29 30 26 24 23 3 12 9 12 14 22 29
48 42 32 26 25 18 14 9 2 4 3 8 7 12 14 20 24 24 21 11 18 19 13 13 13 7 7 10 11 7 7 12 16 17 24 29 31 16 6 15 18 19 20 11 3 14 12
48 44 32 27 22 16 15 9 3 3 7 5 17 7 17 18 14 19 17 16 17 14 12 12 10 12 12 12 11 5 5 6 4 4 6 5 15 19 15 6 4 17 17 15 10 16 10
47 45 34 26 21 16 12 9 6 5 10 9 16 9 11 15 13 15 18 22 15 11 9 8 6 8 10 12 14 15 8 8 5 4 4 2 8 13 14 7 11 12 10 11 12 15 13
46 46 38 28 20 16 12 9 9 11 14 13 10 14 16 15 11 18 11 11 11 13 15 8 5 7 9 13 13 10 11 11 10 11 8 5 4 6 4 5 7 10 7 8 13 10 8
43 45 42 31 23 15 12 10 12 12 15 16 11 14 16 16 10 13 11 12 14 13 11 14 11 9 5 7 10 9 9 7 10 5 9 6 8 3 4 5 9 8 8 10 12 9 8
Wind_Direction
337 333 330 325 318 310 305 299 291 280 259 266 264 273 273 271 264 256 256 255 254 253 247 245 245 243 232 230 224 200 159 191 220 226 235 233 235 238 245 247 247 249 249 250 253 254 253
334 331 328 323 319 314 306 299 293 286 274 253 255 262 261 263 256 266 252 249 250 249 246 240 239 243 242 239 234 236 225 224 222 206 220 233 245 238 241 247 249 253 255 255 253 255 259
335 331 327 325 321 316 311 303 293 287 279 268 250 253 260 250 248 253 255 246 245 246 245 240 239 240 243 234 232 234 239 235 231 234 237 235 246 245 246 254 256 257 259 260 259 261 265
334 331 329 326 322 317 311 302 296 290 283 272 258 239 248 239 245 245 254 252 242 241 243 243 240 240 240 239 235 236 239 237 234 234 236 235 237 244 246 250 259 268 272 267 263 262 266
335 333 331 327 325 321 313 307 300 293 282 272 257 237 237 237 230 235 243 255 240 238 239 242 240 242 241 242 237 228 232 238 235 232 237 240 243 247 251 252 258 256 255 262 269 267 258
339 336 336 332 333 326 317 306 298 294 289 274 260 248 234 239 221 222 229 246 247 235 230 236 245 241 234 228 234 230 230 234 239 237 236 239 243 242 241 238 237 255 253 265 269 272 271
339 337 334 333 332 330 323 316 312 299 292 285 269 250 236 234 234 210 220 231 236 234 231 235 225 226 221 213 237 232 228 233 240 239 239 238 237 239 260 261 261 265 269 272 273 265 276
335 333 332 329 329 329 323 328 323 311 292 298 298 274 237 228 229 211 230 233 244 248 245 236 234 237 227 232 242 234 226 225 232 232 238 244 252 262 261 260 260 259 264 268 274 275 279
334 333 331 327 325 323 322 326 325 313 299 287 277 279 240 228 220 213 239 229 236 249 238 236 236 232 238 238 236 232 223 222 234 248 249 251 254 234 259 256 254 257 259 266 271 284 282
335 332 329 327 323 319 320 325 319 306 301 286 263 303 256 228 223 223 225 222 224 234 224 244 237 235 229 233 238 233 234 241 246 248 249 261 254 257 260 259 259 267 267 272 279 279 269
334 331 329 326 324 320 321 323 316 298 313 299 283 288 271 217 215 228 223 208 201 198 54 216 209 211 217 215 225 220 233 240 241 244 241 251 261 261 252 270 269 265 276 272 282 275 287
333 330 329 326 320 321 322 326 320 295 289 332 321 274 258 224 216 194 221 204 181 172 238 196 189 199 203 199 214 216 214 220 233 239 248 252 257 266 270 268 259 267 267 271 258 266 250
335 331 329 326 321 322 323 328 320 297 300 325 322 273 237 222 213 209 198 177 161 183 176 194 188 182 190 196 192 207 203 202 198 204 242 268 259 263 260 258 250 246 234 246 230 213 244
337 332 334 326 324 324 324 326 320 308 327 331 321 259 227 225 202 180 189 162 143 184 172 179 178 168 174 173 184 193 201 211 219 222 248 265 283 234 248 250 256 242 228 207 226 219 241
339 338 335 329 328 326 326 327 323 307 323 340 351 232 213 202 189 166 180 170 170 178 187 168 152 165 178 181 192 196 212 230 237 235 223 242 260 241 261 259 239 232 220 246 245 260 270
342 341 335 336 332 329 329 329 322 294 322 342 326 209 221 205 194 171 177 172 167 169 188 188 144 177 186 194 194 195 211 249 241 245 240 251 273 272 251 257 249 232 255 216 205 241 247
344 337 337 340 335 335 333 329 316 319 315 344 316 218 216 198 190 169 190 166 170 154 153 187 191 169 185 192 201 200 218 219 224 221 212 233 244 264 265 252 251 230 236 239 237 221 242
346 341 342 343 338 342 336 331 327 321 323 339 46 98 155 190 187 196 189 162 170 190 176 177 180 187 188 194 199 215 231 209 204 225 227 251 249 261 268 284 276 257 247 245 236 231 240
350 347 348 347 345 345 342 337 329 339 337 334 23 106 226 181 176 172 180 175 182 185 201 204 193 202 216 203 208 240 259 250 242 253 247 225 231 276 278 271 240 239 244 239 242 241 242
352 350 352 347 347 346 346 342 346 327 331 324 1 118 166 196 181 182 175 181 186 192 204 207 213 251 233 232 226 242 250 237 241 243 249 252 246 245 249 273 276 242 245 248 238 231 245
353 348 350 347 344 344 350 329 349 337 321 176 66 158 154 173 174 192 186 193 195 204 215 216 224 222 223 228 240 244 265 253 251 246 271 254 256 265 276 284 278 269 263 251 234 245 235
352 350 346 349 345 344 353 348 15 5 88 143 112 132 179 173 166 187 198 209 210 205 206 216 238 246 226 241 244 253 252 269 278 264 255 257 263 278 282 299 295 282 282 261 251 253 255
351 352 348 345 351 348 357 317 43 22 43 80 165 105 171 173 173 191 195 195 201 189 195 215 210 222 241 271 251 262 271 269 260 251 267 267 273 279 281 301 308 279 315 273 258 249 248
351 353 349 344 347 343 350 321 17 39 78 125 159 227 191 177 189 191 201 198 175 178 198 284 219 233 254 293 283 274 290 269 256 252 253 269 281 286 289 320 268 317 350 315 287 245 244
351 354 349 345 344 342 345 326 273 42 138 190 221 163 187 202 202 205 205 218 205 220 228 243 229 224 246 280 297 315 302 278 281 264 258 262 268 282 291 313 297 349 9 348 285 7 278
352 355 351 348 348 343 340 321 233 149 176 125 157 147 197 199 209 203 191 193 204 210 233 246 230 229 242 256 273 264 233 280 284 279 277 252 240 258 303 313 318 353 15 45 56 32 359
352 357 354 347 344 335 326 314 248 179 158 168 164 173 191 204 212 187 209 221 211 220 251 263 271 248 251 254 252 250 247 248 271 266 266 229 230 248 270 276 284 338 357 14 19 357 40
352 357 356 350 341 331 322 273 229 198 170 171 154 177 193 195 195 218 196 195 234 248 251 257 283 256 252 244 238 243 243 239 249 259 274 280 214 216 204 240 296 354 16 4 7 20 96
352 354 357 349 347 327 312 300 244 204 188 175 195 204 215 204 197 198 195 214 228 240 236 241 241 269 277 229 236 227 229 229 244 256 271 253 227 266 242 283 318 324 356 359 11 16 169
Height
3075 3071 3067 3064 3060 3057 3053 3050 3048 3046 3047 3046 3046 3046 3046 3048 3048 3047 3048 3049 3052 3054 3055 3056 3059 3060 3061 3062 3065 3067 3069 3070 3073 3076 3078 3081 3082 3083 3085 3087 3088 3090 3092 3093 3094 3095 3097
3072 3067 3063 3058 3054 3049 3046 3043 3039 3038 3037 3037 3038 3038 3038 3040 3042 3042 3043 3044 3046 3048 3050 3052 3054 3056 3058 3060 3059 3062 3065 3069 3071 3074 3076 3077 3078 3080 3081 3083 3084 3085 3087 3088 3089 3089 3089
3068 3064 3057 3052 3046 3041 3038 3034 3031 3028 3027 3027 3028 3029 3030 3032 3034 3036 3037 3039 3040 3043 3045 3047 3049 3051 3054 3057 3056 3057 3059 3064 3068 3070 3072 3074 3075 3077 3079 3080 3079 3081 3082 3083 3083 3085 3082
3061 3056 3050 3044 3039 3034 3029 3024 3020 3018 3016 3016 3017 3019 3021 3023 3026 3030 3031 3033 3035 3037 3040 3041 3043 3047 3050 3050 3052 3053 3056 3059 3063 3065 3067 3069 3071 3073 3074 3076 3076 3077 3078 3077 3078 3078 3079
3055 3049 3043 3037 3031 3026 3020 3014 3009 3007 3004 3004 3005 3007 3012 3013 3017 3022 3025 3027 3029 3031 3034 3035 3039 3042 3045 3046 3048 3050 3052 3055 3058 3061 3062 3064 3066 3068 3070 3072 3073 3072 3071 3072 3073 3074 3073
3046 3039 3032 3026 3023 3018 3012 3006 3001 2996 2993 2992 2993 2996 3001 3005 3008 3014 3018 3020 3022 3024 3028 3030 3035 3041 3039 3041 3043 3046 3049 3052 3054 3057 3059 3060 3061 3062 3064 3067 3067 3066 3067 3069 3069 3070 3068
3040 3031 3024 3017 3011 3007 3003 2997 2991 2988 2983 2981 2983 2985 2990 2996 3002 3006 3011 3011 3018 3020 3021 3029 3030 3031 3034 3036 3040 3043 3045 3048 3051 3052 3054 3055 3056 3055 3060 3062 3064 3065 3065 3065 3066 3067 3062
3036 3027 3020 3012 3006 2999 2993 2988 2982 2977 2974 2972 2975 2975 2979 2985 2990 2996 2999 3001 3010 3016 3020 3022 3024 3028 3030 3033 3036 3039 3043 3046 3046 3048 3050 3052 3049 3053 3056 3057 3059 3061 3061 3059 3060 3061 3060
3031 3023 3016 3008 3001 2993 2988 2982 2976 2970 2967 2967 2967 2968 2969 2974 2979 2986 2989 2997 3005 3011 3015 3017 3019 3022 3026 3029 3032 3036 3039 3041 3043 3044 3047 3047 3048 3048 3050 3053 3054 3055 3055 3057 3057 3054 3052
3027 3019 3013 3004 2995 2988 2982 2976 2968 2965 2962 2960 2959 2959 2960 2964 2974 2979 2983 2990 3001 3006 3011 3012 3013 3017 3019 3022 3026 3031 3033 3038 3038 3040 3043 3042 3043 3043 3045 3047 3051 3048 3051 3052 3052 3052 3048
3022 3013 3005 2997 2989 2982 2975 2969 2963 2959 2957 2955 2954 2954 2955 2958 2963 2972 2979 2984 2996 3004 3008 3006 3005 3007 3011 3018 3020 3024 3027 3029 3031 3035 3039 3037 3036 3038 3039 3042 3045 3044 3045 3048 3048 3047 3044
3014 3006 2998 2990 2983 2976 2970 2964 2959 2955 2952 2949 2946 2946 2948 2950 2955 2962 2971 2980 2988 3000 2998 2997 2999 3002 3007 3011 3015 3019 3022 3025 3028 3030 3031 3031 3033 3033 3034 3037 3039 3041 3041 3042 3043 3044 3035
3008 2999 2990 2983 2977 2971 2964 2959 2954 2951 2947 2943 2940 2940 2941 2945 2951 2960 2966 2971 2984 2985 2990 2992 2994 2999 3004 3007 3012 3015 3018 3021 3024 3028 3026 3027 3025 3027 3029 3032 3034 3034 3038 3040 3038 3035 3025
3002 2991 2984 2977 2971 2965 2960 2955 2950 2948 2944 2940 2935 2934 2936 2942 2950 2953 2959 2968 2974 2978 2982 2986 2990 2997 3002 3005 3011 3013 3017 3018 3020 3022 3024 3023 3021 3021 3023 3025 3027 3025 3028 3029 3025 3024 3019
2997 2986 2979 2972 2966 2961 2955 2951 2947 2944 2940 2934 2926 2930 2934 2940 2944 2948 2955 2962 2969 2973 2979 2982 2990 2996 3000 3004 3008 3011 3013 3014 3015 3017 3021 3019 3018 3018 3020 3022 3026 3022 3020 3021 3022 3020 3018
2992 2983 2976 2968 2962 2956 2951 2947 2944 2942 2938 2933 2929 2930 2932 2936 2943 2947 2956 2961 2968 2972 2975 2982 2986 2992 2996 3000 3005 3007 3009 3009 3010 3012 3016 3017 3016 3014 3015 3016 3018 3018 3018 3018 3016 3015 3007
2988 2980 2972 2965 2958 2954 2948 2943 2941 2939 2936 2932 2928 2929 2930 2936 2944 2949 2953 2960 2967 2973 2977 2981 2985 2989 2994 2997 3002 3004 3006 3007 3008 3010 3011 3014 3015 3011 3010 3006 3008 3012 3011 3011 3010 3005 2999
2985 2976 2969 2962 2957 2952 2945 2941 2939 2937 2934 2930 2926 2931 2933 2939 2945 2950 2957 2961 2967 2972 2976 2981 2985 2990 2993 2996 2999 3002 3002 3005 3005 3007 3007 3009 3009 3004 3003 3002 3002 3001 3000 3002 3000 2996 2995
2983 2974 2967 2961 2955 2950 2944 2939 2938 2936 2935 2929 2927 2930 2933 2940 2945 2951 2958 2960 2966 2972 2977 2982 2986 2989 2991 2995 2999 2999 2999 3001 3002 3004 3004 3004 3003 3002 2996 2996 2993 2988 2985 2986 2986 2990 2982
2982 2973 2966 2960 2954 2948 2943 2939 2938 2935 2932 2931 2929 2932 2936 2939 2945 2952 2957 2962 2968 2974 2978 2982 2985 2987 2990 2993 2995 2996 2997 2999 2999 2999 3001 3001 2997 2994 2989 2985 2984 2978 2975 2976 2978 2977 2973
2980 2971 2965 2958 2952 2948 2944 2940 2939 2938 2932 2931 2932 2934 2939 2942 2948 2955 2961 2965 2970 2974 2978 2982 2984 2986 2988 2991 2992 2993 2995 2996 2996 2997 2997 2996 2988 2986 2980 2977 2975 2971 2967 2967 2967 2968 2969
2978 2970 2963 2957 2951 2946 2943 2941 2940 2938 2934 2936 2937 2939 2941 2946 2950 2955 2962 2966 2970 2974 2977 2980 2983 2985 2987 2988 2990 2990 2991 2992 2992 2992 2992 2990 2982 2980 2971 2970 2965 2959 2955 2956 2956 2958 2957
2976 2968 2961 2956 2951 2945 2942 2941 2941 2938 2936 2937 2939 2941 2944 2946 2953 2958 2962 2967 2969 2973 2978 2980 2981 2983 2985 2986 2986 2988 2988 2988 2988 2988 2986 2984 2982 2979 2964 2965 2957 2953 2947 2942 2944 2948 2953
2975 2966 2959 2954 2950 2945 2942 2940 2938 2937 2934 2936 2940 2944 2947 2950 2953 2958 2963 2968 2971 2973 2976 2978 2980 2982 2984 2984 2985 2985 2985 2982 2982 2982 2982 2980 2980 2978 2966 2962 2954 2948 2943 2940 2938 2941 2944
2975 2965 2957 2952 2948 2944 2942 2941 2940 2939 2939 2941 2942 2944 2947 2950 2954 2958 2963 2967 2970 2972 2974 2977 2979 2980 2982 2982 2982 2981 2981 2979 2974 2975 2976 2977 2978 2976 2970 2963 2955 2947 2944 2941 2940 2941 2941
2974 2964 2956 2951 2947 2943 2941 2940 2941 2941 2941 2942 2944 2945 2948 2952 2953 2958 2963 2966 2969 2971 2974 2974 2977 2978 2979 2980 2980 2980 2980 2977 2975 2973 2972 2971 2973 2976 2974 2969 2959 2955 2949 2946 2945 2943 2942
2972 2963 2954 2949 2945 2942 2939 2940 2941 2941 2941 2944 2946 2947 2950 2952 2955 2958 2961 2965 2968 2969 2971 2972 2973 2975 2975 2976 2977 2978 2978 2977 2974 2972 2970 2970 2971 2972 2973 2971 2961 2958 2954 2950 2949 2954 2946
2972 2962 2953 2948 2944 2941 2938 2937 2938 2939 2940 2943 2946 2948 2950 2953 2955 2958 2961 2964 2966 2967 2969 2972 2973 2972 2973 2974 2975 2973 2973 2973 2971 2969 2969 2969 2969 2969 2969 2969 2964 2960 2958 2957 2957 2954 2953
2971 2961 2953 2946 2942 2938 2936 2936 2937 2939 2939 2942 2944 2947 2949 2952 2955 2957 2959 2962 2964 2965 2967 2968 2970 2970 2971 2971 2971 2970 2969 2968 2967 2967 2966 2967 2966 2966 2967 2963 2962 2960 2960 2958 2957 2956 2956